RH
34 37 41 35 29 26 24 24 22 17 15 24 26 23 23 22 37 45 52 51 42 43 43 39 39 46 54 68 74 84 86 92 93 97 98 95 91 84 76 67 63 62 59 59
38 39 29 27 22 28 25 24 22 16 15 19 20 20 20 21 26 44 46 46 46 46 44 46 49 58 65 71 90 88 89 89 90 92 89 84 81 77 67 66 62 61 60 60
45 38 28 23 30 32 29 35 28 23 16 15 24 29 32 24 22 32 40 38 38 42 49 52 53 65 82 87 93 92 88 84 83 84 78 71 64 68 69 68 67 63 59 56
48 31 28 29 33 22 25 24 27 22 28 26 28 42 44 36 24 24 28 36 38 41 47 51 58 69 89 90 91 91 87 83 80 81 62 53 55 62 73 74 69 64 62 52
44 39 34 35 33 24 30 27 28 31 32 38 39 41 41 34 24 30 43 37 38 44 49 55 61 84 85 83 85 76 84 79 65 56 53 69 67 69 71 68 58 45 46 44
34 25 32 30 25 22 24 29 33 37 40 62 34 42 48 51 31 42 41 33 34 46 53 58 72 72 76 79 87 82 60 54 64 66 68 68 67 57 53 52 51 44 47 54
24 22 28 27 30 29 31 37 56 63 80 75 39 44 44 38 35 34 32 29 46 54 57 69 71 71 67 68 57 50 58 66 60 57 54 56 51 50 49 51 51 45 49 53
38 48 37 31 30 33 30 38 69 78 86 67 38 46 34 27 27 29 33 40 46 58 62 63 64 68 70 64 59 58 60 60 56 59 50 50 51 58 56 53 50 52 50 52
55 49 40 34 29 28 30 38 35 68 72 80 49 21 25 31 41 51 49 48 60 63 60 60 60 62 64 64 62 63 61 55 58 53 54 54 54 54 57 50 50 52 52 41
64 58 51 46 33 26 28 28 46 56 59 62 38 34 48 36 33 44 54 58 59 55 52 54 56 60 59 62 64 66 60 54 54 57 59 54 52 56 54 53 51 49 52 48
55 59 58 45 44 33 34 35 33 35 62 70 80 48 27 27 32 36 51 52 54 50 46 48 52 54 55 59 63 66 59 53 55 60 58 58 55 56 54 53 51 48 49 49
54 57 75 43 27 23 26 35 47 70 47 77 81 56 25 22 26 29 30 44 50 47 42 43 47 52 55 58 59 65 54 48 57 59 57 57 57 52 49 52 49 51 51 50
44 45 69 44 36 33 35 29 28 46 70 62 74 57 23 21 21 23 28 30 48 48 43 42 46 49 54 57 58 61 48 49 55 49 51 52 51 48 49 48 49 51 52 52
50 42 49 61 44 37 45 42 37 38 76 71 69 44 28 26 25 24 24 27 43 45 41 40 44 47 52 53 57 56 52 54 49 46 50 49 51 48 48 49 50 52 51 54
45 49 48 45 42 36 34 37 32 31 41 56 47 40 31 28 25 26 29 30 26 28 38 46 46 50 50 58 59 57 60 55 50 54 50 48 50 53 50 52 52 54 54 51
44 67 64 65 40 36 41 36 33 32 31 31 32 34 24 24 25 25 25 24 27 28 30 34 50 55 53 58 62 58 55 56 53 54 54 49 48 49 55 53 51 52 55 54
59 75 75 71 50 44 52 37 35 36 34 33 39 32 33 33 32 32 32 31 32 31 36 39 48 56 57 61 58 57 54 57 59 60 54 52 53 51 53 47 46 48 49 55
72 72 83 84 75 52 37 26 22 30 28 28 27 30 32 30 34 37 35 39 38 37 37 37 41 47 58 64 60 50 48 55 56 49 51 50 52 50 48 46 49 56 60 59
66 80 88 77 83 52 35 34 40 36 39 34 38 36 34 32 37 53 44 41 38 37 36 37 42 49 55 56 51 45 47 53 56 55 46 45 48 49 56 61 67 67 62 63
52 74 77 88 84 74 58 34 31 31 66 44 42 46 46 41 78 68 47 44 45 44 47 44 43 47 50 53 49 55 61 64 64 58 56 56 62 63 64 72 69 62 59 62
89 87 84 96 93 79 49 32 37 48 60 48 44 48 50 57 66 52 50 46 44 44 50 59 65 70 68 64 66 71 72 74 66 64 69 70 62 67 67 63 61 66 69 75
81 94 96 97 99 85 37 37 43 65 52 46 46 50 51 53 52 50 50 46 42 53 68 69 75 76 70 63 63 69 75 68 74 73 70 66 68 63 55 64 67 68 72 83
77 79 86 76 84 61 40 39 43 43 45 52 56 57 58 64 65 60 48 48 58 71 79 70 66 62 58 54 64 66 63 70 70 70 75 73 70 65 61 65 70 76 80 92
55 48 78 60 46 43 40 52 55 56 62 62 58 58 62 66 57 45 51 66 70 75 70 64 64 66 71 64 62 68 66 68 73 76 76 76 74 74 76 76 78 82 96 96
67 50 54 59 49 66 65 65 63 58 58 55 52 53 52 54 63 68 74 71 64 60 64 71 76 81 80 73 69 65 69 70 74 73 75 81 90 87 90 87 86 89 83 86
54 56 76 86 66 72 71 63 59 62 64 62 68 77 74 69 76 70 69 66 66 78 78 75 79 76 74 72 71 67 67 72 80 87 91 94 96 93 90 89 88 82 82 85
Wind_Speed
6 1 4 4 2 4 9 6 10 10 6 9 8 8 10 9 7 9 8 6 12 11 9 9 9 13 17 16 15 15 15 12 7 4 4 2 4 4 3 4 7 6 6 7
6 1 3 1 8 8 13 9 14 5 7 5 3 8 10 9 7 16 13 10 9 8 10 10 8 8 15 17 12 14 14 13 8 6 3 4 4 3 4 5 6 7 7 7
2 6 4 9 10 13 4 4 8 3 2 3 3 5 7 3 8 13 14 17 15 15 14 10 9 11 13 14 15 13 14 13 10 10 5 4 5 4 3 4 4 4 6 5
2 10 5 7 14 3 4 6 5 4 6 1 4 1 4 4 3 2 9 10 16 12 14 13 11 9 14 12 13 11 12 12 10 10 8 13 8 7 3 4 4 4 4 6
5 4 9 8 15 4 7 3 3 2 2 1 1 6 8 4 8 5 5 7 10 16 18 16 12 13 13 14 13 13 11 8 8 11 12 7 8 5 5 5 7 5 4 6
8 6 2 8 7 3 7 2 3 3 2 2 6 6 4 6 21 4 5 9 7 10 11 11 13 13 13 10 8 7 8 6 8 9 9 11 12 9 7 5 5 4 3 4
7 8 5 2 3 5 5 6 4 6 7 5 10 2 12 14 8 15 19 12 2 10 13 13 13 10 11 10 10 10 9 9 10 11 9 9 11 10 9 6 4 4 2 2
3 3 4 4 3 4 4 6 6 5 2 5 11 4 8 19 14 15 14 4 5 9 11 13 12 11 11 9 10 8 10 10 10 9 8 7 8 5 5 5 4 4 4 3
5 1 6 10 4 3 4 1 7 7 5 5 6 8 7 10 7 3 6 4 8 9 9 12 12 12 11 8 8 9 9 8 8 8 7 7 6 6 5 6 5 3 4 3
5 2 3 9 8 12 4 4 2 4 4 4 4 3 2 4 5 9 8 10 9 9 10 11 12 12 10 9 7 8 8 9 8 8 6 5 5 5 6 6 6 7 4 3
6 5 6 3 6 13 1 3 2 4 6 6 1 5 3 5 5 10 10 13 15 15 13 13 12 13 13 11 9 9 8 10 9 8 6 6 4 5 5 5 5 5 5 4
11 6 5 16 15 6 5 5 6 7 5 2 6 7 3 6 5 7 8 12 13 15 15 14 15 14 14 14 12 10 9 12 10 8 7 6 5 5 5 4 5 5 5 3
3 0 3 9 7 5 3 4 4 4 4 4 7 7 1 5 4 5 6 7 10 12 13 13 14 16 16 14 13 11 13 13 11 9 8 7 6 5 5 5 5 6 5 4
5 3 7 8 8 2 3 3 5 5 5 4 6 5 11 6 8 7 7 4 9 13 15 15 13 16 16 16 15 13 12 12 12 10 8 8 7 7 6 5 5 4 4 3
5 4 1 3 5 5 4 3 6 6 6 8 9 7 11 0 6 5 6 3 4 7 4 7 12 13 13 12 11 10 9 12 11 9 8 7 6 5 6 5 3 4 3 5
1 1 2 2 6 7 4 6 7 7 6 2 2 6 6 7 7 8 7 7 7 6 7 8 9 9 11 12 11 11 11 11 12 9 7 6 6 6 6 5 3 1 3 4
6 6 4 3 4 6 7 8 7 5 4 4 4 6 10 11 9 7 7 8 7 5 7 8 7 7 7 10 13 12 13 11 9 7 6 8 8 7 7 6 6 5 6 5
6 5 3 3 4 2 10 1 5 5 5 8 8 8 8 6 8 13 9 9 9 8 8 6 4 4 7 7 8 11 13 10 7 9 9 11 9 8 8 4 4 6 5 5
4 5 3 6 4 6 8 3 2 4 4 5 7 8 7 6 6 8 8 8 6 5 4 3 5 6 8 6 9 13 13 14 13 11 12 11 10 8 5 5 5 5 5 4
7 6 6 2 5 7 8 3 5 4 2 4 8 7 7 7 6 3 5 6 8 14 13 15 15 16 17 14 16 19 15 15 14 12 11 11 6 1 2 3 6 3 5 6
3 3 6 2 2 8 6 5 2 8 8 4 5 5 6 3 5 4 3 6 17 15 16 16 18 17 14 13 17 18 15 14 11 11 8 2 3 3 4 5 5 3 3 5
7 7 4 4 3 7 6 3 7 7 3 6 4 3 4 3 6 6 9 14 16 16 15 15 16 14 11 12 14 13 13 9 6 4 4 2 3 4 5 3 2 3 5 5
2 8 7 8 8 8 3 7 6 7 6 5 6 6 6 8 7 7 14 14 15 15 13 11 13 12 8 9 10 10 8 7 4 3 4 3 5 6 3 3 4 4 5 3
1 4 4 6 2 2 3 11 9 9 10 12 12 10 8 7 12 14 13 12 12 11 11 10 10 9 6 6 8 7 5 6 5 2 5 5 4 4 4 4 4 4 3 3
6 5 6 2 2 12 10 8 11 13 13 16 16 15 12 15 14 13 12 11 10 9 7 6 7 6 6 5 5 5 3 1 3 4 4 5 3 5 5 5 4 4 5 5
3 6 5 5 2 10 5 7 12 15 13 13 14 14 14 13 12 10 9 7 7 7 7 8 6 6 4 1 2 2 3 1 2 5 4 4 3 4 5 4 4 5 7 8
Wind_Direction
248 109 208 205 293 351 314 258 266 272 218 166 187 181 191 173 158 130 119 121 155 151 149 150 158 140 148 148 142 143 141 138 137 132 125 167 169 165 129 135 109 116 92 70
357 195 287 88 209 254 272 302 269 260 172 139 125 196 189 179 159 154 160 197 177 142 155 151 131 124 147 151 141 145 148 147 155 157 186 154 167 136 151 113 105 97 96 90
108 263 299 266 295 291 291 286 322 68 8 358 71 31 15 292 172 168 182 189 174 163 157 155 148 136 144 141 147 153 155 164 164 184 175 120 109 97 88 92 101 109 109 110
245 274 229 270 276 303 175 233 327 23 33 235 87 205 354 315 9 279 190 172 181 166 161 162 157 139 148 147 143 161 172 179 179 179 151 153 148 152 166 140 142 132 116 90
257 278 282 256 261 285 242 230 247 252 153 356 326 108 275 171 231 280 320 283 187 169 166 162 157 135 144 147 154 170 185 175 187 169 153 135 124 124 117 106 111 130 102 98
223 208 133 211 269 287 293 319 290 333 73 82 235 129 265 184 225 201 294 258 201 150 157 142 141 145 150 154 162 144 140 125 96 100 119 130 129 126 112 117 121 132 107 83
218 258 234 290 297 351 45 53 344 6 11 232 3 103 222 219 186 196 211 230 221 134 140 137 145 141 137 125 129 135 125 112 111 104 105 114 121 123 130 144 143 120 102 82
154 333 13 14 277 210 237 151 150 162 205 274 359 249 241 208 193 212 207 197 159 132 133 137 134 130 116 129 133 127 127 128 123 117 118 113 121 129 137 134 133 126 118 124
123 222 327 309 321 269 305 327 168 107 324 53 247 298 28 97 168 199 190 183 167 129 129 133 136 136 134 138 149 144 135 133 123 124 123 121 124 125 133 138 110 101 100 99
201 82 314 267 342 297 199 234 43 1 138 240 295 344 180 122 149 177 200 184 151 146 142 148 149 150 152 152 156 150 143 146 136 126 121 126 143 145 152 127 131 125 123 76
142 117 281 18 237 241 262 260 225 145 133 170 142 282 186 84 152 152 190 177 169 170 166 163 161 161 161 161 158 159 145 131 133 128 130 141 174 169 156 153 156 141 143 139
200 154 148 223 230 182 182 191 179 121 265 182 144 269 209 131 160 157 171 188 183 174 175 170 163 164 168 167 165 160 145 144 145 147 142 162 186 193 175 191 169 161 156 170
156 234 50 346 349 326 221 229 231 126 89 189 128 258 198 170 181 170 173 159 175 177 175 174 166 171 170 169 169 160 155 156 153 145 152 171 196 191 203 195 175 158 169 173
105 153 150 184 216 232 342 344 295 162 112 203 208 271 300 262 214 211 188 156 163 180 183 187 177 178 175 173 167 163 158 153 152 154 160 176 183 197 201 178 154 164 172 154
115 156 277 300 323 341 267 215 286 267 211 148 233 216 254 350 117 40 174 182 176 126 160 220 181 169 170 166 161 161 162 153 156 149 155 172 188 193 156 134 135 100 151 210
114 209 82 309 326 12 347 311 298 302 308 317 269 252 219 173 110 74 67 66 91 56 44 39 151 168 167 161 161 169 164 155 149 149 159 155 145 118 104 103 89 258 309 294
130 123 91 248 351 4 346 236 234 237 273 253 293 307 60 52 57 47 41 61 45 59 67 59 104 165 163 164 172 170 157 149 144 153 138 114 109 89 82 62 32 345 321 293
125 109 99 191 36 45 240 235 112 123 48 62 71 68 82 75 57 40 42 82 58 48 33 36 46 128 177 168 149 138 142 131 113 106 100 79 71 63 46 18 348 357 331 301
110 115 104 133 182 282 322 14 81 116 51 40 71 41 39 20 81 19 30 41 48 36 34 43 43 45 55 82 98 99 97 96 91 88 81 74 68 58 37 11 326 274 262 305
57 82 115 126 143 202 234 150 40 46 63 35 63 44 30 33 55 277 28 43 31 43 57 71 57 58 56 48 82 81 79 77 70 59 56 65 63 68 310 300 274 275 299 282
45 3 148 134 174 288 252 142 103 92 225 84 67 73 55 67 178 227 347 70 72 73 69 69 65 66 61 64 76 76 71 63 64 67 62 53 295 332 281 262 273 298 319 333
161 143 191 98 94 282 186 84 130 200 102 87 60 65 52 35 8 20 60 76 82 79 74 71 77 73 71 78 82 86 85 92 104 142 188 233 23 291 280 267 284 316 314 309
127 175 177 160 210 227 134 134 143 116 105 55 66 30 43 54 34 43 88 87 85 83 82 82 86 85 76 87 107 115 136 141 146 63 35 308 267 267 268 302 293 291 282 261
76 134 107 75 282 177 125 60 73 74 79 69 65 54 49 56 74 78 83 78 81 84 90 97 100 100 86 50 53 62 62 48 49 332 280 275 285 314 317 296 272 262 236 230
200 117 150 215 125 81 46 53 87 72 65 81 66 58 66 80 70 78 79 79 85 93 92 82 78 72 69 53 45 22 75 93 300 302 301 296 287 288 284 272 253 255 235 210
171 175 142 205 107 104 95 76 85 82 73 73 83 66 54 76 87 87 83 78 77 74 71 67 65 73 73 52 281 320 314 254 269 280 275 258 259 267 266 268 282 293 278 289